Regional Weather Roundup
Issued by NWS

Home | Current Version | Previous Version | Graphics & Text | Print | Product List | Glossary Off
Versions: 1 2 3 4 5 6 7 8 9 10 11 12 13 14 15 16 17 18 19 20 21 22 23 24 25 26 27 28 29 30 31 32 33 34 35 36 37 38 39 40 41 42 43 44 45 46 47 48 49 50

000
ASUS43 KTOP 270408
RWRKS

WEATHER ROUNDUP FOR KANSAS
NATIONAL WEATHER SERVICE GOODLAND KS
1100 PM CDT MON SEP 26 2016

NOTE:  "FAIR" INDICATES FEW OR NO CLOUDS BELOW 12,000 FEET WITH NO
SIGNIFICANT WEATHER AND/OR OBSTRUCTIONS TO VISIBILITY.

KSZ001>006-013>018-027>032-041>047-270500-
NORTHWEST KANSAS

CITY           SKY/WX    TMP DP  RH WIND       PRES   REMARKS
GOODLAND       CLEAR     53  41  63 CALM      30.24S
HAYS           CLEAR     55  37  50 CALM      30.17F
HILL CITY      CLEAR     52  47  83 W5        30.17F
RUSSELL        CLEAR     57  45  64 S10       30.15F
$$

KSZ061>065-074>080-084>089-270500-
SOUTHWEST KANSAS

CITY           SKY/WX    TMP DP  RH WIND       PRES   REMARKS
DODGE CITY     CLEAR     56  39  53 S7        30.19F
ELKHART          N/A     58  33  39 S10         N/A
GARDEN CITY    CLEAR     58  35  42 SW9       30.20S
GREAT BEND     CLEAR     57  41  54 S8        30.17F
LIBERAL        CLEAR     57  34  41 SW10      30.23F
PRATT          CLEAR     51  40  65 S6        30.19S
$$

KSZ066>073-081>083-090>101-270500-
SOUTHEAST KANSAS

CITY           SKY/WX    TMP DP  RH WIND       PRES   REMARKS
CHANUTE        CLEAR     56  49  77 S3        30.17S
COFFEYVILLE    CLEAR     53  51  93 CALM      30.17F
HUTCHINSON     CLEAR     55  48  77 CALM      30.17F
MEDICINE LODGE   N/A     58  46  64 S3        30.19S
NEWTON         CLEAR    N/A N/A N/A S5        30.18F
PARSONS        CLEAR     51  49  92 CALM      30.18S
WICHITA INTL   CLEAR     57  49  74 SW3       30.17F
WICHITA JABRA  CLEAR     58  47  66 SW6       30.17F
WICHITA MCCONL CLEAR     60  47  64 SW5       30.17F
WINFIELD       CLEAR     55  51  86 CALM      30.19F
$$

KSZ007>012-019>026-033>040-048>060-102>105-270500-
NORTHEAST KANSAS

CITY           SKY/WX    TMP DP  RH WIND       PRES   REMARKS
CONCORDIA      CLEAR     63  42  46 SW13      30.13S
EMPORIA        CLEAR     54  47  77 SW8       30.15F
LAWRENCE       CLEAR     51  51 100 CALM      30.12F
MANHATTAN      CLEAR     51  49  92 NE3       30.13S
MARYSVILLE     CLEAR     55  46  71 SW6       30.12R
OLATHE IND     CLEAR     57  48  72 SW7       30.13F
OLATHE EXE     CLEAR     58  47  66 SW5       30.13F
SALINA         CLEAR     55  48  77 S7        30.15S
TOPEKA BILLARD CLEAR     56  51  84 CALM      30.12F
TOPEKA FORBES  CLEAR     59  48  67 SW7       30.12F
$$



USA.gov is the U.S. government's official web portal to all federal, state and local government web resources and services.